Daytona Beach, FL

5:09 AM EDT on August 21, 2017 (GMT -0400)
Daytona Beach International

Weather History for KDAB - August, 2013

Change the Weather History Date:

Saturday, August 17, 2013

  Actual Average Record
Temperature  
Mean Temperature 82 °F 82 °F  
Max Temperature 88 °F 90 °F 96 °F (1955)
Min Temperature 76 °F 73 °F 67 °F (2000)
Degree Days  
Heating Degree Days 0 0  
Month to date heating degree days 0 0  
Since 1 June heating degree days 0 0  
Since 1 July heating degree days 0 0  
Cooling Degree Days 17 17  
Month to date cooling degree days 308 289  
Year to date cooling degree days 1955 1852  
Since 1 June cooling degree days 1303 1251  
Growing Degree Days 32 (Base 50)    
Moisture  
Dew Point 75 °F    
Average Humidity 85    
Maximum Humidity 94    
Minimum Humidity 75    
Precipitation  
Precipitation 0.17 in 0.20 in 2.31 in (2002)
Month to date precipitation 3.28 3.32  
Year to date precipitation 32.29 30.05  
Sea Level Pressure  
Sea Level Pressure 30.07 in    
Wind  
Wind Speed 4 mph (ENE)    
Max Wind Speed 14 mph    
Max Gust Speed 18 mph    
Visibility 10 miles    
Events Rain , Thunderstorm    
T = Trace of Precipitation, MM = Missing Value Source: NWS Daily Summary

Daily Weather History Graph

Daily Weather History Graph

Search for Another Location

Airport or City:

Trip Planner

Search our weather history database for the weather conditions in past years. The results will help you decide how hot, cold, wet, or windy it might be!

Date:

Astronomy

Aug. 17, 2013 Rise Set
Actual Time 6:54 AM EDT 8:02 PM EDT
Civil Twilight 6:29 AM EDT 8:26 PM EDT
Nautical Twilight 5:59 AM EDT 8:56 PM EDT
Astronomical Twilight 5:29 AM EDT 9:26 PM EDT
Moon 5:08 PM EDT (8/17) 3:04 AM EDT (8/17)
Length of Visible Light 13h 57m
Length of Day
13h 08m
Waxing Gibbous, 84% of the Moon is Illuminated
Aug 17
Waxing Gibbous
Aug 20
Full
Aug 28
Last Quarter
Sep 5
New
Sep 12
First Quarter

Hourly Weather History & Observations

Time (EDT) Temp. Heat Index Dew Point Humidity Pressure Visibility Wind Dir Wind Speed Gust Speed Precip Events Conditions
12:53 AM 75.9 °F - 72.0 °F 87% 30.06 in 10.0 mi Calm Calm - N/A   Mostly Cloudy
1:53 AM 75.9 °F - 72.0 °F 87% 30.07 in 10.0 mi Calm Calm - N/A   Mostly Cloudy
2:53 AM 75.9 °F - 73.0 °F 91% 30.06 in 10.0 mi Calm Calm - N/A   Overcast
3:53 AM 75.9 °F - 73.0 °F 91% 30.05 in 10.0 mi Calm Calm - N/A   Overcast
4:53 AM 75.9 °F - 73.0 °F 91% 30.03 in 10.0 mi Calm Calm - N/A   Overcast
5:53 AM 77.0 °F - 73.9 °F 90% 30.03 in 10.0 mi Calm Calm - N/A   Mostly Cloudy
6:53 AM 78.1 °F - 75.0 °F 90% 30.05 in 10.0 mi Calm Calm - N/A   Mostly Cloudy
7:53 AM 79.0 °F - 75.0 °F 88% 30.07 in 10.0 mi Calm Calm - N/A   Mostly Cloudy
8:53 AM 82.0 °F 91.0 °F 78.1 °F 88% 30.07 in 10.0 mi Variable 4.6 mph - N/A   Mostly Cloudy
9:53 AM 82.9 °F 90.8 °F 75.9 °F 79% 30.10 in 10.0 mi Calm Calm - N/A   Mostly Cloudy
10:42 AM 80.6 °F 85.4 °F 73.4 °F 79% 30.11 in 10.0 mi NNW 9.2 mph - N/A   Mostly Cloudy
10:53 AM 80.1 °F 84.2 °F 73.0 °F 79% 30.11 in 10.0 mi NNW 8.1 mph - N/A   Mostly Cloudy
11:29 AM 82.4 °F 88.2 °F 73.4 °F 74% 30.10 in 10.0 mi North 6.9 mph - N/A   Mostly Cloudy
11:53 AM 84.9 °F 92.1 °F 73.9 °F 69% 30.09 in 10.0 mi NE 8.1 mph - 0.00 in Rain Light Rain
12:53 PM 87.1 °F 97.3 °F 75.9 °F 69% 30.08 in 10.0 mi ENE 10.4 mph - 0.00 in   Mostly Cloudy
1:53 PM 86.0 °F 96.9 °F 77.0 °F 74% 30.08 in 10.0 mi ENE 10.4 mph - N/A   Mostly Cloudy
2:53 PM 88.0 °F 101.3 °F 78.1 °F 72% 30.06 in 10.0 mi East 8.1 mph - N/A   Mostly Cloudy
3:53 PM 84.9 °F 95.3 °F 77.0 °F 77% 30.04 in 10.0 mi ESE 9.2 mph - 0.17 in   Mostly Cloudy
4:07 PM 86.0 °F 96.9 °F 77.0 °F 74% 30.03 in 10.0 mi ESE 9.2 mph 16.1 mph N/A Thunderstorm Thunderstorm
4:53 PM 84.0 °F 91.9 °F 75.0 °F 74% 30.04 in 10.0 mi East 6.9 mph - N/A Thunderstorm Thunderstorm
5:21 PM 82.4 °F 89.5 °F 75.2 °F 79% 30.03 in 10.0 mi ESE 6.9 mph - 0.00 in   Mostly Cloudy
5:53 PM 84.0 °F 92.6 °F 75.9 °F 76% 30.04 in 10.0 mi East 6.9 mph - 0.00 in   Mostly Cloudy
6:53 PM 82.9 °F 91.8 °F 77.0 °F 82% 30.06 in 10.0 mi ESE 6.9 mph - N/A   Mostly Cloudy
7:53 PM 82.9 °F 91.8 °F 77.0 °F 82% 30.09 in 10.0 mi SSE 3.5 mph - N/A   Mostly Cloudy
8:53 PM 82.0 °F 90.2 °F 77.0 °F 85% 30.11 in 10.0 mi Calm Calm - N/A   Mostly Cloudy
9:53 PM 82.0 °F 90.2 °F 77.0 °F 85% 30.12 in 10.0 mi NNW 3.5 mph - N/A   Mostly Cloudy
10:53 PM 81.0 °F 87.9 °F 77.0 °F 88% 30.12 in 10.0 mi Calm Calm - N/A   Mostly Cloudy
11:53 PM 81.0 °F 87.3 °F 75.9 °F 85% 30.10 in 10.0 mi Calm Calm - N/A   Mostly Cloudy